TimeCDT,TemperatureF,Dew PointF,Humidity,Sea Level PressureIn,VisibilityMPH,Wind Direction,Wind SpeedMPH,Gust SpeedMPH,PrecipitationIn,Events,Conditions,WindDirDegrees,DateUTC
12:15 AM,51.8,46.4,82,29.99,10.0,Calm,Calm,-,N/A,,Overcast,0,2012-10-04 05:15:00
12:35 AM,51.8,46.4,82,29.98,10.0,Calm,Calm,-,N/A,,Overcast,0,2012-10-04 05:35:00
12:55 AM,50.0,44.6,82,29.98,10.0,Calm,Calm,-,N/A,,Overcast,0,2012-10-04 05:55:00
1:15 AM,50.0,46.4,87,29.98,10.0,Calm,Calm,-,N/A,,Mostly Cloudy,0,2012-10-04 06:15:00
1:35 AM,50.0,44.6,82,29.98,10.0,Calm,Calm,-,N/A,,Mostly Cloudy,0,2012-10-04 06:35:00
1:55 AM,50.0,46.4,87,29.98,10.0,Calm,Calm,-,N/A,,Scattered Clouds,0,2012-10-04 06:55:00
2:15 AM,48.2,44.6,87,29.98,7.0,Calm,Calm,-,N/A,,Clear,0,2012-10-04 07:15:00
2:35 AM,46.4,44.6,93,29.97,7.0,Calm,Calm,-,N/A,,Clear,0,2012-10-04 07:35:00
2:55 AM,46.4,44.6,93,29.97,4.0,Calm,Calm,-,N/A,,Clear,0,2012-10-04 07:55:00
3:15 AM,46.4,42.8,87,29.96,0.8,Calm,Calm,-,N/A,,Mist,0,2012-10-04 08:15:00
3:35 AM,46.4,44.6,93,29.96,1.0,Calm,Calm,-,N/A,,Mist,0,2012-10-04 08:35:00
3:55 AM,44.6,42.8,93,29.95,3.0,Calm,Calm,-,N/A,,Clear,0,2012-10-04 08:55:00
4:15 AM,44.6,42.8,93,29.95,3.0,Calm,Calm,-,N/A,,Clear,0,2012-10-04 09:15:00
4:35 AM,44.6,42.8,93,29.95,7.0,Calm,Calm,-,N/A,,Clear,0,2012-10-04 09:35:00
4:55 AM,44.6,42.8,93,29.95,5.0,Calm,Calm,-,N/A,,Clear,0,2012-10-04 09:55:00
5:15 AM,44.6,42.8,93,29.94,7.0,Calm,Calm,-,N/A,,Scattered Clouds,0,2012-10-04 10:15:00
5:35 AM,44.6,42.8,93,29.94,10.0,Calm,Calm,-,N/A,,Scattered Clouds,0,2012-10-04 10:35:00
5:55 AM,42.8,41.0,93,29.94,10.0,Calm,Calm,-,N/A,,Clear,0,2012-10-04 10:55:00
6:15 AM,42.8,41.0,93,29.94,7.0,Calm,Calm,-,N/A,,Clear,0,2012-10-04 11:15:00
6:35 AM,42.8,41.0,93,29.94,4.0,Calm,Calm,-,N/A,,Clear,0,2012-10-04 11:35:00
6:55 AM,42.8,41.0,93,29.93,0.2,Calm,Calm,-,N/A,Fog,Fog,0,2012-10-04 11:55:00
7:15 AM,42.8,41.0,93,29.93,0.2,Calm,Calm,-,N/A,Fog,Fog,0,2012-10-04 12:15:00
7:35 AM,42.8,42.8,100,29.93,0.5,Calm,Calm,-,N/A,Fog,Fog,0,2012-10-04 12:35:00
7:55 AM,46.4,44.6,93,29.92,4.0,ESE,3.5,-,N/A,,Clear,120,2012-10-04 12:55:00
8:15 AM,50.0,46.4,87,29.92,5.0,Calm,Calm,-,N/A,,Clear,0,2012-10-04 13:15:00
8:35 AM,51.8,50.0,94,29.92,7.0,SSE,3.5,-,N/A,,Clear,160,2012-10-04 13:35:00
8:55 AM,53.6,51.8,94,29.92,10.0,SSE,4.6,-,N/A,,Clear,160,2012-10-04 13:55:00
9:15 AM,59.0,51.8,77,29.90,10.0,South,5.8,-,N/A,,Clear,170,2012-10-04 14:15:00
9:35 AM,62.6,51.8,68,29.90,10.0,South,8.1,-,N/A,,Clear,190,2012-10-04 14:35:00
9:55 AM,64.4,50.0,59,29.90,10.0,SSW,10.4,-,N/A,,Scattered Clouds,200,2012-10-04 14:55:00
10:15 AM,64.4,50.0,59,29.90,10.0,SSW,12.7,16.1,N/A,,Scattered Clouds,210,2012-10-04 15:15:00
10:35 AM,62.6,50.0,63,29.90,10.0,SSW,11.5,-,N/A,,Mostly Cloudy,210,2012-10-04 15:35:00
10:55 AM,62.6,50.0,63,29.89,10.0,South,10.4,16.1,N/A,,Mostly Cloudy,190,2012-10-04 15:55:00
11:35 AM,68.0,50.0,52,29.89,10.0,SSW,12.7,20.7,N/A,,Scattered Clouds,210,2012-10-04 16:35:00
11:55 AM,68.0,48.2,49,29.88,10.0,SW,13.8,19.6,N/A,,Clear,230,2012-10-04 16:55:00
12:15 PM,69.8,44.6,40,29.89,10.0,WSW,16.1,24.2,N/A,,Scattered Clouds,240,2012-10-04 17:15:00
12:35 PM,68.0,44.6,43,29.89,10.0,WSW,17.3,24.2,N/A,,Scattered Clouds,240,2012-10-04 17:35:00
12:55 PM,68.0,44.6,43,29.89,10.0,WSW,15.0,-,N/A,,Scattered Clouds,250,2012-10-04 17:55:00
1:15 PM,68.0,42.8,40,29.89,10.0,West,15.0,24.2,N/A,,Scattered Clouds,270,2012-10-04 18:15:00
1:35 PM,68.0,41.0,37,29.89,10.0,WSW,13.8,21.9,N/A,,Clear,240,2012-10-04 18:35:00
1:55 PM,68.0,41.0,37,29.90,10.0,WSW,18.4,-,N/A,,Clear,250,2012-10-04 18:55:00
2:15 PM,68.0,39.2,35,29.91,10.0,West,17.3,26.5,N/A,,Clear,260,2012-10-04 19:15:00
2:35 PM,64.4,37.4,37,29.92,10.0,West,16.1,25.3,N/A,,Mostly Cloudy,260,2012-10-04 19:35:00
2:55 PM,64.4,37.4,37,29.92,10.0,WSW,19.6,25.3,N/A,,Overcast,240,2012-10-04 19:55:00
3:15 PM,64.4,35.6,34,29.92,10.0,WSW,16.1,21.9,N/A,,Mostly Cloudy,240,2012-10-04 20:15:00
3:35 PM,64.4,35.6,34,29.92,10.0,WSW,17.3,-,N/A,,Mostly Cloudy,250,2012-10-04 20:35:00
3:55 PM,66.2,33.8,30,29.92,10.0,WSW,18.4,27.6,N/A,,Scattered Clouds,250,2012-10-04 20:55:00
4:15 PM,64.4,33.8,32,29.92,10.0,West,21.9,27.6,N/A,,Clear,260,2012-10-04 21:15:00
4:35 PM,64.4,32.0,30,29.93,10.0,West,18.4,27.6,N/A,,Clear,260,2012-10-04 21:35:00
4:55 PM,62.6,33.8,34,29.93,10.0,WSW,20.7,27.6,N/A,,Clear,240,2012-10-04 21:55:00
5:15 PM,62.6,32.0,32,29.94,10.0,West,18.4,26.5,N/A,,Clear,270,2012-10-04 22:15:00
5:35 PM,60.8,32.0,34,29.95,10.0,WSW,19.6,24.2,N/A,,Clear,240,2012-10-04 22:35:00
5:55 PM,59.0,32.0,36,29.95,10.0,WSW,16.1,26.5,N/A,,Clear,250,2012-10-04 22:55:00
6:15 PM,57.2,32.0,38,29.96,10.0,West,15.0,23.0,N/A,,Clear,270,2012-10-04 23:15:00
6:35 PM,55.4,32.0,41,29.97,10.0,West,10.4,-,N/A,,Clear,270,2012-10-04 23:35:00
6:55 PM,53.6,32.0,44,29.98,10.0,West,16.1,25.3,N/A,,Clear,260,2012-10-04 23:55:00
7:15 PM,53.6,32.0,44,29.99,10.0,West,17.3,25.3,N/A,,Clear,260,2012-10-05 00:15:00
7:35 PM,51.8,32.0,47,29.99,10.0,West,9.2,-,N/A,,Clear,260,2012-10-05 00:35:00
8:15 PM,51.8,32.0,47,30.01,10.0,WSW,12.7,23.0,N/A,,Clear,250,2012-10-05 01:15:00
8:35 PM,50.0,32.0,50,30.02,10.0,West,11.5,19.6,N/A,,Clear,260,2012-10-05 01:35:00
8:55 PM,50.0,32.0,50,30.03,10.0,West,12.7,18.4,N/A,,Clear,270,2012-10-05 01:55:00
9:15 PM,48.2,32.0,54,30.03,10.0,West,9.2,18.4,N/A,,Clear,270,2012-10-05 02:15:00
9:35 PM,46.4,32.0,57,30.03,10.0,West,15.0,20.7,N/A,,Clear,270,2012-10-05 02:35:00
9:55 PM,46.4,32.0,57,30.03,10.0,West,10.4,20.7,N/A,,Clear,260,2012-10-05 02:55:00
10:15 PM,46.4,32.0,57,30.04,10.0,West,12.7,18.4,N/A,,Clear,260,2012-10-05 03:15:00
10:35 PM,46.4,32.0,57,30.04,10.0,West,11.5,18.4,N/A,,Clear,260,2012-10-05 03:35:00
10:55 PM,44.6,32.0,61,30.05,10.0,West,11.5,-,N/A,,Clear,270,2012-10-05 03:55:00
11:15 PM,44.6,32.0,61,30.05,10.0,West,11.5,18.4,N/A,,Clear,270,2012-10-05 04:15:00
11:35 PM,44.6,32.0,61,30.05,10.0,West,9.2,-,N/A,,Clear,260,2012-10-05 04:35:00
11:55 PM,42.8,32.0,66,30.06,10.0,West,5.8,-,N/A,,Scattered Clouds,260,2012-10-05 04:55:00